Flag for Norway Weather past 2 weeks in Kleppe, Norway

Now
63 °F

Sunny.


Feels Like: 63 °F
Forecast: 52 / 62 °F
Wind: 5 mph from East

Location: Stavanger / Sola

Current Time: Sep 3, 2015 at 7:28:56 PM

Latest Report: Sep 3, 2015 at 6:00 PM


Visibility: 31 mi

Pressure: 29.76 "Hg

Humidity: 55%

Dew point: 46 °F

Location of KleppeLocation

Historic Weather in Kleppe — Graph

°F

Kleppe temperature yesterday

Maximum temperature yesterday: 64 °F (at 6:00 PM)
Minimum temperature yesterday: 54 °F (at 8:00 AM)
Average temperature yesterday: 59 °F

Past Weeks' High & Low Weather Summary

 TemperatureHumidityPressure
High78 °F (Aug 23, 3:00 PM)95% (Aug 26, 1:00 AM)30.25 "Hg (Aug 26, 1:00 AM)
Low54 °F (Aug 31, 5:00 AM)36% (Aug 19, 6:00 PM)29.44 "Hg (Sep 2, 1:00 PM)
Average63 °F72%29.89 "Hg
* Reported Aug 19 6:00 PM — Sep 3 6:00 PM, Kleppe, Weather by CustomWeather, © 2015

Note: Actual official high and low records may vary slightly from our data, if they occured in-between our weather recording intervals... More about our weather records

Advertising

Kleppe weather history for previous 24 hours

 ConditionsComfort  
Time TempWeatherWind HumidityBarometerVisibility
6:00 PM
Thu, Sep 3
63 °FSunny.5 mph55%29.76 "Hg31 mi
5:00 PM64 °FPassing clouds.6 mph56%29.75 "Hg25 mi
4:00 PM65 °FPassing clouds.6 mph56%29.74 "Hg25 mi
3:00 PM64 °FPassing clouds.8 mph56%29.72 "Hg28 mi
2:00 PM64 °FRain showers. Passing clouds.6 mph56%29.71 "Hg25 mi
1:00 PM63 °FPassing clouds.8 mph57%29.70 "Hg28 mi
12:00 PM64 °FSunny.7 mph56%29.69 "Hg22 mi
11:00 AM62 °FSunny.7 mph62%29.69 "Hg28 mi
10:00 AM60 °FLight rain. Passing clouds.5 mph68%29.66 "Hg25 mi
9:00 AM61 °FScattered clouds.5 mph67%29.65 "Hg31 mi
8:00 AM58 °FSunny.3 mph72%29.64 "Hg31 mi
7:00 AM58 °FPassing clouds.2 mph72%29.62 "Hg31 mi
6:00 AM59 °FPassing clouds.5 mph70%29.60 "Hg31 mi
5:00 AM57 °FRain showers. Passing clouds.1 mph76%29.60 "Hg31 mi
4:00 AM59 °FPassing clouds.3 mph66%29.59 "Hg31 mi
3:00 AM59 °FOvercast.5 mph67%29.59 "Hg31 mi
2:00 AM59 °FOvercast.6 mph67%29.59 "Hg31 mi
1:00 AM59 °FPassing clouds.3 mph70%29.58 "Hg31 mi
12:00 AM60 °FPassing clouds.6 mph66%29.56 "Hg31 mi
10:00 PM
Wed, Sep 2
60 °FPassing clouds.5 mph67%29.54 "Hg31 mi
9:00 PM60 °FPassing clouds.3 mph67%29.50 "Hg31 mi
8:00 PM62 °FPartly sunny.5 mph68%29.50 "Hg31 mi
7:00 PM63 °FRain showers. Sunny.3 mph72%29.47 "Hg19 mi
Weather by CustomWeather, © 2015

See weather overviewHow to use our weather pages